User: anonymous   Login
Location: Moulis
(42.9609°N, 1.0909°E)
Time: 08:05:40
(UTC+00:00)
Language:

COSMOS 2455 - Orbit

View from above orbital plane
View from above orbital plane
View from above satellite
View from above satellite

Ground track
Ground track

The orbit is defined by the following mean orbital elements,

1 36095U          26038.85259203 +.00000000 +00000-0 +48473-4 0 00009
2 36095  67.1461 207.4368 0007280 248.0583 111.9728 13.97037249    01
Epoch (UTC): 07 February 2026 20:27:43
Eccentricity: 0.0007280
inclination: 67.1461°
perigee height: 899 km
apogee height: 909 km
right ascension of ascending node: 207.4368°
argument of perigee: 248.0583°
revolutions per day: 13.97037249
mean anomaly at epoch: 111.9728°

The dashed part of the orbit path shows where the satellite is in the earth's shadow,  

DLR